Location: Unspecified
(0.0000°N, 0.0000°E)
Time: 17:50:15
(UTC+00:00)

STARLINK 1056 - Pass Details

Date: 17 January 2020
Orbit: 548 x 551 km, 53.0° (Epoch: 17 January)

Event Time Altitude Azimuth Distance (km) Brightness Sun altitude
Rises 18:54:48 0° 313° (NW) 2,700 7.5 -10.5°
Reaches altitude 10° 18:57:08 10° 305° (NW) 1,810 6.7 -11.0°
Maximum altitude 19:00:58 38° 236° (SW) 845 5.2 -11.9°
Drops below altitude 10° 19:04:49 10° 167° (SSE) 1,819 6.4 -12.8°
Sets 19:07:10 0° 159° (SSE) 2,715 7.2 -13.3°
